DWS9845 Weather Reports


time (UTC)temp
F
wind
direction
speed
knots
gust
knots
rain 1hr
in
rain 24hr
in
rain mn
in
humidity
%
barometer
mb
20260506212239 86 203 1.7 4.3 0.00 0.00 0.00 82 1006.6
20260506211736 86 202 1.7 5.2 0.00 0.00 0.00 82 1006.7
20260506211227 86 202 1.7 5.2 0.00 0.00 0.00 82 1006.6
20260506210720 86 201 1.7 4.3 0.00 0.00 0.00 81 1006.6
20260506210218 87 202 1.7 4.3 0.00 0.00 0.00 81 1006.6
20260506205709 87 203 1.7 4.3 0.00 0.00 0.00 82 1006.6
20260506205202 87 203 1.7 4.3 0.00 0.00 0.00 82 1006.7
20260506204657 86 204 0.9 3.5 0.00 0.00 0.00 83 1006.7
20260506204150 86 204 1.7 5.2 0.00 0.00 0.00 84 1006.7
20260506203912 85 204 1.7 5.2 0.00 0.00 0.00 84 1006.9
20260506203149 85 204 1.7 5.2 0.00 0.00 0.00 84 1006.9
20260506202638 85 204 1.7 3.5 0.00 0.00 0.00 85 1007.0
20260506202128 85 204 1.7 5.2 0.00 0.00 0.00 85 1007.0
20260506201838 84 204 1.7 7.0 0.00 0.00 0.00 85 1007.0
20260506201110 84 199 1.7 7.0 0.00 0.00 0.00 85 1007.0
20260506200603 84 190 1.7 5.2 0.00 0.00 0.00 84 1007.0
20260506200056 85 190 0.9 5.2 0.00 0.00 0.00 84 1007.1
20260506195549 85 188 0.9 3.5 0.00 0.00 0.00 84 1007.3
20260506195047 85 188 1.7 5.2 0.00 0.00 0.00 84 1007.2
20260506194546 85 188 1.7 7.0 0.00 0.00 0.00 84 1007.3
20260506194042 85 190 1.7 7.0 0.00 0.00 0.00 84 1007.3
20260506193525 85 186 1.7 4.3 0.00 0.00 0.00 84 1007.4
20260506193019 85 186 1.7 4.3 0.00 0.00 0.00 85 1007.5
20260506192517 85 186 1.7 5.2 0.00 0.00 0.00 84 1007.4
20260506192007 85 184 0.9 5.2 0.00 0.00 0.00 84 1007.4
20260506191501 85 186 0.9 4.3 0.00 0.00 0.00 84 1007.5
20260506190955 85 186 0.9 3.5 0.00 0.00 0.00 85 1007.7
20260506190449 84 186 1.7 3.5 0.00 0.00 0.00 86 1007.7
20260506185942 84 192 1.7 3.5 0.00 0.00 0.00 86 1007.8
20260506185435 84 192 1.7 3.5 0.00 0.00 0.00 86 1007.9
20260506185146 84 192 0.9 3.5 0.00 0.00 0.00 86 1007.9
20260506184419 83 192 1.7 4.3 0.00 0.00 0.00 86 1008.0
20260506183918 83 192 1.7 4.3 0.00 0.00 0.00 86 1008.0
20260506183903 84 190 0.9 4.3 0.00 0.00 0.00 85 1008.0
20260506183358 84 190 0.9 4.3 0.00 0.00 0.00 85 1008.1
20260506182354 85 191 0.0 2.6 0.00 0.00 0.00 85 1008.1
20260506181849 85 190 0.0 2.6 0.00 0.00 0.00 85 1008.2
20260506181346 84 190 0.0 1.7 0.00 0.00 0.00 86 1008.3
20260506180842 84 190 0.0 1.7 0.00 0.00 0.00 86 1008.4
20260506180324 84 190 0.0 1.7 0.00 0.00 0.00 86 1008.5
20260506175818 84 190 0.0 2.6 0.00 0.00 0.00 86 1008.5
20260506175318 84 190 0.9 2.6 0.00 0.00 0.00 86 1008.6
20260506175254 84 190 0.9 3.5 0.00 0.00 0.00 86 1008.6
20260506174254 84 190 0.9 3.5 0.00 0.00 0.00 86 1008.6
20260506174019 84 191 0.9 3.5 0.00 0.00 0.00 86 1008.6
20260506173254 84 191 0.9 3.5 0.00 0.00 0.00 87 1008.7
20260506172754 83 191 0.9 1.7 0.00 0.00 0.00 88 1008.8
20260506172249 83 190 0.9 3.5 0.00 0.00 0.00 88 1008.9
20260506171747 83 191 0.9 3.5 0.00 0.00 0.00 88 1008.9
20260506171246 83 191 0.9 3.5 0.00 0.00 0.00 89 1009.0
20260506170745 83 190 0.9 3.5 0.00 0.00 0.00 89 1009.0
20260506170242 82 190 1.7 5.2 0.00 0.00 0.00 89 1009.0
20260506165732 82 191 1.7 5.2 0.00 0.00 0.00 89 1009.1
20260506165506 82 194 0.9 5.2 0.00 0.00 0.00 90 1009.0
20260506164722 82 194 0.9 4.3 0.00 0.00 0.00 91 1009.0
20260506164216 82 194 0.9 3.5 0.00 0.00 0.00 92 1009.0
20260506163715 81 194 0.9 3.5 0.00 0.00 0.00 93 1008.9
20260506163438 81 194 0.9 3.5 0.00 0.00 0.00 93 1009.0
20260506162923 80 194 0.9 3.5 0.00 0.00 0.00 93 1008.9
20260506162200 80 194 0.9 3.5 0.00 0.00 0.00 92 1008.8
20260506161658 80 194 0.0 1.7 0.00 0.00 0.00 92 1008.9
20260506161154 80 194 0.0 1.7 0.00 0.00 0.00 92 1008.8
20260506160630 80 194 0.0 2.6 0.00 0.00 0.00 93 1008.8
20260506160130 80 194 0.0 2.6 0.00 0.00 0.00 93 1008.8
20260506155845 80 194 0.0 1.7 0.00 0.00 0.00 93 1008.8
20260506155110 80 194 0.0 1.7 0.00 0.00 0.00 93 1008.8
20260506154554 80 194 0.0 1.7 0.00 0.00 0.00 94 1008.8
20260506154055 79 194 0.0 1.7 0.00 0.00 0.00 93 1008.7
20260506153554 79 194 0.0 1.7 0.00 0.00 0.00 93 1008.6
20260506153052 79 194 0.0 2.6 0.00 0.00 0.00 93 1008.5
20260506152531 79 194 0.0 2.6 0.00 0.00 0.00 93 1008.3
20260506151954 79 194 0.0 2.6 0.00 0.00 0.00 93 1008.4
20260506151450 79 194 0.0 3.5 0.00 0.00 0.00 93 1008.5
20260506150938 79 194 0.0 3.5 0.00 0.00 0.00 94 1008.4
20260506150434 79 194 0.0 0.9 0.00 0.00 0.00 94 1008.3
20260506145909 79 194 0.0 2.6 0.00 0.00 0.00 94 1008.2
20260506145356 79 194 0.0 3.5 0.00 0.00 0.00 94 1008.1
20260506144856 79 194 0.0 3.5 0.00 0.00 0.00 94 1008.0
20260506144354 79 194 0.0 2.6 0.00 0.00 0.00 94 1007.8
20260506143853 78 194 0.9 2.6 0.00 0.00 0.00 94 1007.7
20260506143353 78 194 0.9 3.5 0.00 0.00 0.00 94 1007.7
20260506142852 78 194 0.9 4.3 0.00 0.00 0.00 94 1007.6
20260506142622 78 194 0.9 4.3 0.00 0.00 0.00 94 1007.8
20260506142110 78 194 0.9 3.5 0.00 0.00 0.00 94 1007.8
20260506141352 78 194 0.0 2.6 0.00 0.00 0.00 94 1007.9
20260506141111 78 194 0.9 3.5 0.00 0.00 0.00 95 1008.0
20260506140604 78 194 0.0 3.5 0.00 0.00 0.00 95 1008.0
20260506135836 78 194 0.0 2.6 0.00 0.00 0.00 95 1007.9
20260506135334 78 194 0.0 2.6 0.00 0.00 0.00 95 1008.0
20260506134820 78 194 0.0 1.7 0.00 0.00 0.00 95 1008.0
20260506134316 78 194 0.0 1.7 0.00 0.00 0.00 95 1008.1
20260506133805 78 194 0.0 1.7 0.00 0.00 0.00 95 1008.0
20260506133253 78 194 0.0 1.7 0.00 0.00 0.00 95 1008.0
20260506133005 78 194 0.0 1.7 0.00 0.00 0.00 95 1008.1
20260506132234 78 194 0.0 0.9 0.00 0.00 0.00 95 1008.1
20260506131951 78 194 0.0 0.9 0.00 0.00 0.00 95 1008.1
20260506131226 77 194 0.0 0.9 0.00 0.00 0.00 95 1008.1
20260506130714 77 194 0.0 1.7 0.00 0.00 0.00 95 1008.1
20260506130203 77 194 0.0 1.7 0.00 0.00 0.00 95 1008.1
20260506125658 77 194 0.0 0.9 0.00 0.00 0.00 95 1008.1
20260506125411 77 194 0.0 1.7 0.00 0.00 0.00 95 1008.1
20260506124650 77 194 0.0 1.7 0.00 0.00 0.00 95 1008.1
20260506124146 77 194 0.0 1.7 0.00 0.00 0.00 95 1008.0
20260506123849 77 194 0.0 0.9 0.00 0.00 0.00 95 1007.9
20260506123322 77 194 0.0 0.9 0.00 0.00 0.00 95 1007.9
20260506122600 77 194 0.0 1.7 0.00 0.00 0.00 95 1007.8
20260506122056 77 194 0.0 1.7 0.00 0.00 0.00 95 1007.8
20260506121544 77 194 0.0 1.7 0.00 0.00 0.00 95 1007.8
20260506120956 77 194 0.0 3.5 0.00 0.00 0.00 95 1007.8
20260506120454 77 194 0.0 3.5 0.00 0.00 0.00 95 1007.6
20260506115942 77 194 0.0 2.6 0.00 0.00 0.00 95 1007.7
20260506115416 77 194 0.0 2.6 0.00 0.00 0.00 95 1007.5
20260506114858 77 194 0.0 2.6 0.00 0.00 0.00 95 1007.4
20260506114351 77 194 0.0 2.6 0.00 0.00 0.00 95 1007.4
20260506114052 77 194 0.0 1.7 0.00 0.00 0.00 95 1007.3
20260506113252 77 194 0.0 1.7 0.00 0.00 0.00 95 1007.3
20260506112752 77 194 0.0 2.6 0.00 0.00 0.00 95 1007.3
20260506112248 77 194 0.0 2.6 0.00 0.00 0.00 95 1007.1
20260506111748 77 194 0.0 2.6 0.00 0.00 0.00 95 1007.0
20260506111507 77 194 0.0 2.6 0.00 0.00 0.00 95 1007.1
20260506111227 77 194 0.0 2.6 0.00 0.00 0.00 95 1007.0
20260506110242 76 194 0.9 3.5 0.00 0.00 0.00 95 1006.9
20260506105743 76 194 0.0 3.5 0.00 0.00 0.00 95 1006.9
20260506105240 76 194 0.0 1.7 0.00 0.00 0.00 95 1007.0
20260506104723 76 194 0.0 0.9 0.00 0.00 0.00 95 1007.1
20260506104356 76 194 0.0 0.9 0.00 0.00 0.00 94 1007.1
20260506104246 76 194 0.0 0.9 0.00 0.00 0.00 94 1007.1
20260506103152 76 194 0.0 1.7 0.00 0.00 0.00 94 1007.1
20260506102914 76 194 0.0 1.7 0.00 0.00 0.00 94 1006.9
20260506102144 76 194 0.0 0.0 0.00 0.00 0.00 94 1006.9
20260506101640 76 194 0.0 0.0 0.00 0.00 0.00 94 1006.9
20260506101126 76 194 0.0 0.0 0.00 0.00 0.00 94 1007.0
20260506100547 76 194 0.0 0.9 0.00 0.00 0.00 94 1007.0
20260506100040 76 194 0.0 0.9 0.00 0.00 0.00 94 1006.9
20260506095540 76 194 0.0 0.0 0.00 0.00 0.00 94 1006.8
20260506095008 76 194 0.0 0.0 0.00 0.00 0.00 94 1006.9
20260506094504 76 194 0.0 0.0 0.00 0.00 0.00 94 1006.8
20260506093944 76 194 0.0 0.0 0.00 0.00 0.00 94 1006.7
20260506093439 76 194 0.0 0.9 0.00 0.00 0.00 94 1006.8
20260506092935 76 194 0.0 0.9 0.00 0.00 0.00 94 1006.8
20260506092415 76 194 0.0 0.9 0.00 0.00 0.00 94 1006.8
20260506091908 76 194 0.0 0.9 0.00 0.00 0.00 94 1006.9
20260506091406 76 194 0.0 0.0 0.00 0.00 0.00 94 1006.9
20260506090857 76 194 0.0 1.7 0.00 0.00 0.00 94 1006.9
20260506090352 76 194 0.0 1.7 0.00 0.00 0.00 94 1006.7
20260506085850 76 194 0.0 0.9 0.00 0.00 0.00 94 1006.7
20260506085612 76 194 0.0 0.9 0.00 0.00 0.00 94 1006.8
20260506084832 76 194 0.0 2.6 0.00 0.00 0.00 94 1007.0
20260506084321 76 194 0.0 2.6 0.00 0.00 0.00 94 1007.0
20260506083752 76 194 0.0 3.5 0.00 0.00 0.00 94 1007.1
20260506083248 76 194 0.0 3.5 0.00 0.00 0.00 94 1007.0
20260506082742 77 194 0.0 4.3 0.00 0.00 0.00 93 1007.0
20260506082238 77 194 0.0 4.3 0.00 0.00 0.00 93 1007.1
20260506081712 77 194 0.0 2.6 0.00 0.00 0.00 93 1007.1
20260506081420 77 194 0.0 2.6 0.00 0.00 0.00 93 1007.1
20260506080704 77 194 0.0 1.7 0.00 0.00 0.00 93 1007.2
20260506080201 77 194 0.0 2.6 0.00 0.00 0.00 93 1007.2
20260506073155 78 194 1.7 3.5 0.00 0.00 0.00 93 1007.5
20260506072656 78 194 0.9 4.3 0.00 0.00 0.00 92 1007.5
20260506072154 78 194 0.9 4.3 0.00 0.00 0.00 92 1007.6
20260506071654 78 194 0.9 3.5 0.00 0.00 0.00 92 1007.7
20260506071154 78 194 0.0 1.7 0.00 0.00 0.00 92 1007.9
20260506070913 78 194 0.0 2.6 0.00 0.00 0.00 92 1007.8
20260506070154 78 194 0.9 3.5 0.00 0.00 0.00 92 1007.8
20260506062110 78 194 0.9 4.3 0.00 0.00 0.00 92 1007.9
20260506061559 78 194 0.9 4.3 0.00 0.00 0.00 92 1007.8
20260506061100 78 194 0.9 3.5 0.00 0.00 0.00 91 1007.7
20260506060556 78 194 0.9 3.5 0.00 0.00 0.00 91 1007.8
20260506050949 78 194 0.9 3.5 0.00 0.00 0.00 91 1007.9
20260506050447 78 194 0.9 3.5 0.00 0.00 0.00 91 1008.0
20260506044910 78 194 0.9 3.5 0.00 0.00 0.00 91 1007.9
20260506044405 78 194 0.9 3.5 0.00 0.00 0.00 91 1007.9
20260506043906 78 194 0.9 3.5 0.00 0.00 0.00 91 1007.9
20260506043404 78 194 1.7 4.3 0.00 0.00 0.00 91 1007.8
20260506043120 78 194 1.7 4.3 0.00 0.00 0.00 91 1007.8
20260506042355 78 194 1.7 4.3 0.00 0.00 0.00 91 1007.8
20260506041856 78 194 1.7 4.3 0.00 0.00 0.00 91 1007.7
20260506041354 78 194 0.9 4.3 0.00 0.00 0.00 91 1007.7
20260506040853 78 194 1.7 4.3 0.00 0.00 0.00 91 1007.7
20260506040353 78 193 0.9 4.3 0.00 0.00 0.00 91 1007.6
20260506035854 78 193 0.9 3.5 0.00 0.00 0.00 91 1007.6
20260506035348 78 193 0.9 4.3 0.00 0.00 0.00 91 1007.5
20260506034849 78 193 0.9 4.3 0.00 0.00 0.00 91 1007.5
20260506034350 78 193 0.9 4.3 0.00 0.00 0.00 91 1007.5
20260506033850 78 193 0.9 2.6 0.00 0.00 0.00 91 1007.5
20260506033350 78 193 0.9 3.5 0.00 0.00 0.00 91 1007.5
20260506032846 78 193 0.9 3.5 0.00 0.00 0.00 91 1007.6
20260506032345 78 192 0.9 4.3 0.00 0.00 0.00 91 1007.4
20260506031839 78 192 0.9 4.3 0.00 0.00 0.00 91 1007.4
20260506031338 78 192 0.9 4.3 0.00 0.00 0.00 91 1007.4
20260506030838 78 192 0.9 4.3 0.00 0.00 0.00 91 1007.3
20260506030334 78 192 0.9 3.5 0.00 0.00 0.00 91 1007.3
20260506025830 78 192 1.7 6.1 0.00 0.00 0.00 91 1007.3
20260506025804 78 192 1.7 6.1 0.00 0.00 0.00 90 1007.2
20260506024825 78 192 1.7 5.2 0.00 0.00 0.00 90 1007.1
20260506024324 78 190 1.7 4.3 0.00 0.00 0.00 90 1007.1
20260506023825 78 191 1.7 6.1 0.00 0.00 0.00 90 1007.0
20260506023553 78 191 0.9 6.1 0.00 0.00 0.00 90 1007.0
20260506022824 78 191 0.9 3.5 0.00 0.00 0.00 90 1006.9
20260506022322 79 191 0.9 3.5 0.00 0.00 0.00 90 1006.7
20260506021822 79 191 0.9 3.5 0.00 0.00 0.00 89 1006.7
20260506021300 79 191 1.7 5.2 0.00 0.00 0.00 89 1006.7
20260506020758 79 191 1.7 5.2 0.00 0.00 0.00 89 1006.6
20260506020253 79 192 1.7 4.3 0.00 0.00 0.00 89 1006.5
20260506020007 79 191 1.7 6.1 0.00 0.00 0.00 88 1006.4
20260506015252 79 191 2.6 6.1 0.00 0.00 0.00 88 1006.3
20260506015012 79 188 1.7 5.2 0.00 0.00 0.00 88 1006.2
20260506014511 79 188 1.7 5.2 0.00 0.00 0.00 88 1006.2
20260506013750 79 188 1.7 4.3 0.00 0.00 0.00 87 1006.1
20260506013246 79 188 0.9 4.3 0.00 0.00 0.00 87 1006.0
20260506012736 80 188 0.9 4.3 0.00 0.00 0.00 87 1006.0
20260506012230 80 186 0.9 5.2 0.00 0.00 0.00 86 1005.9
20260506011730 80 185 1.7 5.2 0.00 0.00 0.00 86 1006.0
20260506011222 80 186 1.7 6.1 0.00 0.00 0.00 86 1005.8
20260506010709 80 186 1.7 6.1 0.00 0.00 0.00 86 1005.7
20260506010208 80 202 1.7 5.2 0.00 0.00 0.00 86 1005.7
20260506005702 80 202 1.7 5.2 0.00 0.00 0.00 86 1005.7
20260506005155 80 202 1.7 5.2 0.00 0.00 0.00 86 1005.5
20260506004646 80 203 1.7 5.2 0.00 0.00 0.00 86 1005.6
20260506004136 80 205 1.7 4.3 0.00 0.00 0.00 86 1005.5
20260506003638 80 207 1.7 5.2 0.00 0.00 0.00 85 1005.5
20260506003128 80 211 1.7 5.2 0.00 0.00 0.00 85 1005.4
20260506002628 80 194 1.7 7.0 0.00 0.00 0.00 85 1005.4
20260506002127 81 197 1.7 7.0 0.00 0.00 0.00 85 1005.4
20260506001847 81 221 1.7 6.1 0.00 0.00 0.00 84 1005.3
20260506001306 81 197 2.6 5.2 0.00 0.00 0.00 84 1005.3
20260506001152 81 173 1.7 6.1 0.00 0.00 0.00 84 1005.4
20260506000056 81 198 2.6 8.7 0.00 0.00 0.00 83 1005.3
20260505235554 81 215 2.6 8.7 0.00 0.00 0.00 83 1005.4
20260505235053 81 219 1.7 7.8 0.00 0.00 0.00 82 1005.4
20260505234550 81 194 1.7 5.2 0.00 0.00 0.00 82 1005.4
20260505234045 81 193 2.6 5.2 0.00 0.00 0.00 82 1005.3
20260505233803 82 188 2.6 7.0 0.00 0.00 0.00 81 1005.3
20260505233046 82 208 2.6 7.0 0.00 0.00 0.00 82 1005.3
20260505232543 82 208 2.6 7.0 0.00 0.00 0.00 81 1005.5
20260505232042 82 209 2.6 7.8 0.00 0.00 0.00 82 1005.4
20260505231540 82 198 2.6 7.8 0.00 0.00 0.00 81 1005.4
20260505231038 82 220 3.5 8.7 0.00 0.00 0.00 81 1005.4
20260505230533 82 193 3.5 8.7 0.00 0.00 0.00 81 1005.4
20260505230256 82 186 3.5 7.8 0.00 0.00 0.00 81 1005.3
20260505225534 82 189 2.6 7.8 0.00 0.00 0.00 81 1005.5
20260505225242 83 196 2.6 7.0 0.00 0.00 0.00 81 1005.5
20260505224516 83 188 2.6 7.8 0.00 0.00 0.00 80 1005.5
20260505224016 83 174 2.6 7.8 0.00 0.00 0.00 80 1005.4
20260505223516 82 189 2.6 6.1 0.00 0.00 0.00 80 1005.4
20260505223009 83 198 2.6 7.0 0.00 0.00 0.00 81 1005.5
20260505222509 83 182 2.6 7.0 0.00 0.00 0.00 80 1005.6
20260505222010 83 221 2.6 7.0 0.00 0.00 0.00 80 1005.7
20260505221510 83 145 2.6 7.0 0.00 0.00 0.00 81 1005.7
20260505221006 83 144 2.6 7.0 0.00 0.00 0.00 81 1005.6
20260505220507 83 183 2.6 7.0 0.00 0.00 0.00 81 1005.6
20260505220006 83 182 2.6 7.8 0.00 0.00 0.00 81 1005.6
20260505215502 83 202 3.5 7.8 0.00 0.00 0.00 81 1005.7
20260505215002 83 174 3.5 7.8 0.00 0.00 0.00 81 1005.8
20260505214503 83 201 2.6 7.8 0.00 0.00 0.00 81 1005.9
20260505214230 83 207 3.5 7.0 0.00 0.00 0.00 81 1005.9
20260505213502 83 211 2.6 6.1 0.00 0.00 0.00 81 1005.9
20260505213004 83 136 1.7 5.2 0.00 0.00 0.00 81 1006.0